Location: Ch�ze
(42.9000°N, 0.0333°W)
Time: 23:11:24
(UTC+00:00)

MOS 1 Rocket - Pass Details

Date: 24 January 2021
Orbit: 614 x 830 km, 97.4° (Epoch: 24 February)

Event Time Altitude Azimuth Distance (km) Brightness Sun altitude
Rises 18:40:26 0° 7° (N) 2,904 6.3 -17.8°
Reaches altitude 10° 18:42:40 10° 2° (N) 1,986 5.5 -18.2°
Maximum altitude 18:46:50 53° 287° (WNW) 763 3.8 -19.0°
Drops below altitude 10° 18:51:00 10° 210° (SSW) 1,985 6.1 -19.8°
Sets 18:53:14 0° 206° (SSW) 2,903 7.0 -20.2°
